Temperature
22 22 21 20 19 19 21 23 25 25 25 25 25 25 23 22 22 21 20 20 21 21 21 20 20 20 20 20 20 20 20 19 19 19 19 19 19 19 19 18 18 18 18 18 18 18 18 18 18
22 22 21 20 19 20 22 24 25 25 26 25 25 24 23 22 21 21 20 20 21 21 21 20 20 20 20 20 20 19 19 19 19 19 19 19 19 19 19 18 18 18 18 18 18 18 18 18 18
22 22 21 19 20 21 23 25 25 26 26 26 25 24 23 22 21 21 21 21 21 21 21 20 20 20 20 20 20 19 19 19 19 19 19 19 19 19 18 18 18 18 18 18 18 18 18 18 18
22 22 21 20 21 24 25 26 26 26 26 26 24 23 22 21 21 21 21 21 21 20 20 20 20 20 20 20 20 19 19 19 19 19 19 19 19 18 18 18 18 18 18 18 18 18 18 18 18
22 21 20 20 22 26 27 28 27 26 26 25 24 22 21 21 22 21 21 21 21 20 20 20 20 20 20 20 20 19 19 19 19 19 19 19 19 18 18 18 18 18 18 18 18 18 18 18 18
22 21 20 21 24 27 28 28 28 26 25 24 23 21 20 21 21 21 21 21 20 20 20 20 20 20 20 20 19 19 19 19 19 19 18 18 18 18 18 18 18 18 18 18 18 18 18 18 18
22 21 21 23 25 27 28 28 28 26 25 25 23 20 20 20 20 20 20 20 20 20 20 20 20 20 20 20 19 19 19 19 19 18 18 18 18 18 18 18 18 18 18 18 18 18 18 18 18
24 21 22 24 26 27 29 29 28 27 25 25 24 21 20 20 20 20 20 20 19 19 20 20 20 20 20 19 19 19 19 19 18 18 18 18 18 18 18 18 18 18 18 18 18 18 18 18 18
25 22 22 24 27 28 29 28 28 27 25 24 23 23 22 20 20 20 19 19 19 19 19 19 19 19 19 19 19 19 19 18 18 18 18 18 18 18 18 18 18 18 18 18 18 18 18 18 18
25 21 23 26 28 28 29 28 28 26 24 22 22 22 21 20 19 19 19 19 19 19 19 19 19 19 19 19 19 18 18 18 18 18 18 18 18 17 17 17 17 17 17 17 17 17 17 17 17
25 24 26 28 29 29 29 28 28 25 23 22 22 21 21 20 20 19 19 19 19 19 19 19 19 19 19 19 19 18 18 18 18 18 18 18 17 17 17 17 17 17 17 17 17 17 17 17 17
26 27 28 29 29 29 29 28 26 25 24 24 23 22 21 21 20 19 19 19 19 18 19 19 19 19 19 19 19 18 18 18 18 18 18 17 17 17 17 17 17 17 17 17 17 17 17 17 17
27 27 29 29 29 29 28 27 25 24 24 23 22 21 21 21 20 20 19 19 18 18 18 18 18 19 18 18 18 18 18 18 18 18 18 17 17 17 17 17 17 17 17 17 16 16 17 17 17
27 27 28 28 29 29 27 26 24 23 23 22 21 21 20 20 20 20 19 19 18 18 18 18 18 18 18 18 18 18 18 18 18 18 18 17 17 17 17 17 17 17 16 16 16 16 16 16 16
28 26 26 27 28 28 27 25 24 23 22 21 21 20 20 20 20 20 19 19 18 18 18 18 18 18 18 18 18 18 18 18 18 18 18 17 17 17 17 17 17 16 16 16 16 16 16 16 16
26 25 24 26 27 27 26 24 24 23 22 21 21 20 20 20 20 20 19 19 19 18 18 18 18 18 18 18 18 18 18 18 18 18 18 17 17 17 17 17 16 16 16 16 16 16 16 16 16
24 23 25 26 27 27 25 24 23 23 22 21 20 19 19 19 19 19 19 19 19 18 18 18 18 18 18 18 18 18 18 18 18 18 18 17 17 17 17 16 16 16 16 16 16 16 16 16 16
23 24 26 26 27 26 25 23 23 23 22 21 20 19 19 19 19 19 19 18 18 18 18 18 18 18 18 18 18 18 18 17 17 17 17 17 17 17 16 16 16 16 16 16 16 16 16 16 16
25 26 26 27 27 26 24 23 22 22 22 20 19 19 18 19 19 19 19 18 18 18 18 18 18 18 18 18 18 18 17 17 17 17 17 17 17 16 16 16 16 16 15 15 15 15 16 16 16
26 26 26 26 27 25 23 22 22 22 21 21 20 19 19 18 18 18 18 18 18 17 18 18 18 18 18 18 18 18 18 17 17 17 17 17 16 16 16 16 16 15 15 15 15 15 15 16 16
27 26 26 26 25 23 23 22 21 21 21 21 20 19 19 19 18 18 18 18 18 17 18 18 18 18 18 18 18 17 17 17 17 17 17 16 16 16 16 16 15 15 15 15 15 15 15 15 15
26 27 27 26 23 21 22 20 20 20 20 20 20 19 19 19 19 18 18 18 18 18 18 18 18 18 18 18 17 17 17 17 17 17 17 16 16 16 16 15 15 15 15 15 15 15 15 15 15
27 27 26 24 21 20 20 20 19 19 20 20 19 19 19 19 19 18 18 18 18 18 18 18 18 18 17 17 17 17 17 17 17 17 17 16 16 16 16 15 15 15 15 15 15 15 15 15 15
27 25 23 19 18 20 20 20 19 19 20 20 20 19 19 19 19 19 18 18 18 18 18 18 17 17 17 17 17 17 17 17 17 17 17 16 16 16 16 16 15 15 15 15 15 15 15 15 15
26 23 21 21 19 19 19 19 19 20 21 20 20 20 19 19 19 19 18 18 18 18 18 18 18 17 17 17 17 17 17 17 17 17 17 17 16 16 16 16 16 15 15 15 15 15 15 15 15
25 23 21 21 20 19 19 19 19 21 21 21 21 20 20 19 19 19 19 18 18 18 18 18 18 18 18 17 17 17 17 17 17 17 17 17 17 16 16 16 16 16 15 15 15 15 15 15 15
25 23 21 20 20 19 19 19 20 21 21 21 20 20 20 19 19 19 19 19 18 18 18 18 18 18 18 17 17 17 17 17 17 17 17 17 17 17 16 16 16 16 16 16 16 15 15 15 15
25 23 20 20 20 20 20 19 19 20 20 20 20 20 20 20 20 20 19 19 19 19 18 18 18 18 18 18 17 17 17 17 17 17 17 17 17 17 17 16 16 16 16 16 16 16 16 16 16
24 23 21 19 19 19 19 19 21 20 20 20 20 20 21 20 20 20 20 20 19 19 19 18 18 18 18 18 18 17 18 17 17 17 17 17 17 17 17 17 16 16 16 16 16 16 16 16 16
24 22 20 20 20 19 19 19 22 20 20 20 20 21 21 21 21 20 20 20 19 19 19 19 19 18 18 18 18 18 18 17 17 17 17 17 17 17 17 17 17 17 16 16 16 16 16 16 16
Wind_Speed
6 5 3 1 3 3 3 4 3 3 1 3 8 11 9 5 4 4 5 12 18 17 19 22 23 23 22 22 21 20 19 18 18 17 17 17 17 16 16 15 15 14 14 13 13 12 12 12 12
4 4 2 2 2 1 4 4 3 3 4 8 10 10 7 5 5 8 7 13 18 18 19 21 24 23 23 22 21 20 19 18 18 17 17 16 16 16 15 15 14 14 13 13 13 12 12 12 11
3 3 1 2 1 4 4 3 5 4 4 5 6 7 5 5 6 7 10 17 16 14 18 22 25 24 23 22 21 20 19 19 18 17 16 16 15 15 14 14 14 13 13 12 12 11 11 10 10
1 2 1 1 6 8 7 6 6 6 4 5 9 7 4 3 4 10 17 17 16 13 17 22 25 24 23 22 21 20 19 19 17 17 16 15 15 14 14 13 13 12 12 11 10 10 9 9 8
2 2 1 3 7 7 6 7 8 7 5 7 10 7 4 3 14 19 17 17 16 13 16 21 24 24 23 22 21 20 19 18 17 16 15 14 14 14 13 13 12 12 11 10 9 8 8 7 6
1 2 0 5 6 4 1 6 9 9 8 8 8 8 4 6 16 17 16 15 15 14 14 20 23 24 23 22 21 20 19 18 17 16 15 14 13 13 12 12 11 11 10 9 8 7 6 5 5
3 1 4 5 4 2 3 5 8 9 8 6 8 7 5 7 13 15 14 14 13 13 12 14 19 21 22 21 20 20 19 18 17 16 14 14 13 12 12 11 10 10 9 8 7 6 5 4 3
5 1 5 4 2 1 1 4 6 9 7 7 7 9 8 10 14 15 14 14 12 11 11 10 14 16 17 18 19 19 18 17 16 15 14 13 13 12 11 10 10 9 8 7 6 5 4 2 1
2 0 5 5 2 2 1 4 3 6 9 4 3 6 12 19 18 17 14 12 11 11 9 9 10 12 14 15 17 18 17 16 15 13 13 12 10 10 10 10 9 8 7 6 5 4 3 2 0
6 5 9 7 3 2 2 4 5 5 7 5 6 9 17 19 19 20 18 17 15 14 11 10 10 10 12 13 14 13 13 13 11 10 10 9 9 9 8 9 9 8 7 6 5 4 3 2 1
6 9 9 7 5 1 1 1 3 8 4 7 13 17 17 17 17 18 19 19 17 15 14 11 11 10 10 8 11 9 9 10 9 9 9 8 7 6 6 5 5 5 5 4 3 3 2 2 2
6 9 7 5 4 2 1 2 3 5 7 12 18 19 17 17 16 17 18 17 15 14 14 11 10 9 8 9 9 8 7 7 6 8 9 8 5 5 5 4 4 4 4 3 3 2 2 2 2
5 6 6 6 5 3 1 2 5 4 8 13 16 15 14 14 12 12 13 13 13 12 12 11 10 9 8 7 7 8 6 7 8 9 9 10 6 3 4 3 4 4 4 4 3 2 1 2 2
7 9 10 8 6 3 2 1 6 5 10 13 14 12 11 11 10 11 12 13 11 10 12 10 10 9 8 7 6 6 8 9 9 8 9 9 7 5 4 3 3 3 3 4 3 2 2 1 2
7 9 13 9 5 3 3 1 3 9 12 12 11 11 11 10 10 12 13 13 13 11 11 12 11 9 9 8 8 8 9 10 8 8 9 8 7 6 5 3 3 2 3 4 4 3 3 2 2
6 6 6 9 4 3 6 5 4 9 12 10 10 11 10 9 10 11 12 12 13 12 12 13 12 11 9 8 7 8 9 9 8 9 9 9 8 8 6 4 2 2 4 4 3 3 3 3 2
4 5 7 8 4 3 5 4 4 9 11 10 9 10 10 9 8 9 11 12 12 13 12 12 11 11 10 8 7 7 9 8 8 9 8 8 9 9 7 3 3 5 4 3 3 3 3 2 2
9 8 7 6 4 3 3 2 4 8 10 11 10 10 10 10 9 9 10 11 11 11 11 11 11 10 10 8 7 6 6 5 7 7 7 8 8 9 7 4 4 6 4 3 3 3 2 2 1
12 11 9 8 3 2 2 3 4 6 7 10 10 11 10 9 7 8 8 10 11 10 11 12 11 9 9 8 8 7 6 5 4 4 7 8 8 8 7 4 4 4 4 3 3 3 3 2 2
13 10 8 5 3 4 3 2 3 5 7 9 12 12 12 9 8 8 8 8 11 12 12 13 12 11 9 8 6 5 6 4 4 3 5 7 8 7 6 5 4 4 4 4 4 3 3 2 2
12 8 5 3 4 7 4 3 2 1 1 4 8 10 12 14 13 11 11 10 10 12 13 13 12 10 9 8 6 6 5 4 3 3 3 4 8 8 8 7 5 4 4 4 3 4 4 2 2
10 7 3 0 3 3 3 1 5 3 1 3 6 8 10 11 11 11 11 11 11 11 10 10 11 10 9 9 9 10 7 6 5 5 4 4 6 7 8 7 6 5 4 4 3 4 3 4 2
9 5 2 3 5 3 3 2 7 2 2 4 6 9 11 12 12 12 12 12 11 10 10 10 11 10 9 9 10 9 7 5 4 4 6 5 4 5 7 7 6 5 4 4 4 4 4 3 3
5 4 6 6 6 3 2 2 5 4 5 5 6 10 11 12 12 10 9 9 8 8 9 11 11 10 10 10 9 10 10 8 7 6 6 5 3 3 5 6 6 5 4 4 4 4 4 3 3
3 4 5 6 5 3 2 2 7 8 7 6 8 11 12 12 12 11 11 11 10 10 11 11 12 11 10 10 9 10 10 10 10 8 7 6 4 4 5 5 5 4 4 5 4 4 4 3 3
5 7 6 5 4 3 1 4 7 8 5 3 6 9 12 12 12 13 13 12 11 12 12 12 13 11 11 11 9 8 9 7 6 7 7 7 6 6 7 6 6 6 7 6 4 3 3 3 3
4 4 8 7 2 1 2 4 7 4 1 1 4 8 11 13 13 13 12 12 12 12 12 13 13 11 11 11 9 8 8 8 7 7 6 6 6 6 7 8 7 7 7 6 6 4 4 4 4
6 6 5 5 4 2 2 4 5 6 5 5 6 7 9 11 12 13 13 12 12 12 12 12 12 13 11 11 10 9 8 8 8 7 7 7 7 6 7 8 8 8 7 7 6 4 4 5 5
1 2 4 4 6 6 4 6 7 10 9 8 9 8 8 10 12 13 12 12 12 11 12 12 12 11 11 11 10 9 8 7 7 7 7 7 6 7 8 9 9 9 8 8 7 7 6 7 6
5 6 7 5 4 6 6 6 5 8 8 7 8 8 8 8 9 11 11 10 10 11 12 12 12 12 11 10 9 9 8 7 7 7 7 7 7 7 8 8 9 9 9 9 9 9 8 8 8
Wind_Direction
195 198 186 39 44 37 265 244 203 195 155 88 95 102 106 101 136 158 144 144 141 145 149 146 143 140 137 134 132 130 128 125 123 120 118 116 116 115 113 111 110 109 107 105 103 101 99 98 99
193 199 175 50 79 328 263 220 182 205 155 119 95 92 90 81 92 115 130 143 141 143 146 147 144 141 139 137 136 135 133 130 128 126 124 122 121 119 117 114 113 111 109 107 104 102 101 98 97
222 198 137 102 216 213 242 221 173 167 137 118 100 77 78 106 114 132 143 140 136 140 144 147 145 143 141 140 139 138 136 134 133 131 129 126 125 123 121 118 116 114 112 109 106 103 100 98 95
172 78 43 97 256 247 228 219 164 140 106 102 104 88 75 61 131 134 138 139 136 139 145 148 145 144 143 143 142 141 140 139 138 135 134 132 129 127 126 124 120 118 115 113 111 107 101 98 93
123 100 18 284 260 259 231 186 157 130 117 111 107 106 80 49 119 131 140 141 138 141 146 148 146 145 145 145 145 144 143 143 142 140 139 138 134 132 130 128 127 125 121 119 118 114 105 96 88
25 95 26 276 275 277 196 138 116 112 114 118 110 112 94 123 129 137 139 140 142 145 145 148 148 147 147 147 148 148 147 147 146 145 143 142 139 137 136 135 134 132 130 129 128 122 113 100 83
173 174 237 263 298 355 127 130 123 127 124 133 127 111 118 142 139 137 136 134 141 145 145 147 149 149 150 151 152 151 150 150 150 150 150 149 145 143 142 142 143 141 140 140 139 135 128 117 87
181 115 288 282 288 329 120 115 123 125 125 128 124 134 154 164 144 136 133 132 136 143 145 147 148 149 150 153 155 155 154 154 154 154 155 156 155 154 153 153 152 150 149 151 150 151 146 141 107
184 3 272 263 264 286 106 103 109 97 111 103 107 144 147 145 141 135 133 134 143 151 151 151 150 148 150 153 158 159 157 158 157 160 161 161 162 162 163 168 165 161 161 163 167 170 176 186 215
161 196 243 237 239 277 52 114 133 109 104 97 94 107 131 142 147 148 150 154 158 161 160 158 154 151 155 161 156 159 158 157 157 160 158 159 164 169 171 177 176 171 171 176 184 191 197 209 253
197 215 246 259 260 281 8 94 123 129 137 168 155 149 149 149 152 156 158 160 163 162 162 161 159 158 165 154 154 160 155 154 155 157 156 155 149 152 152 157 167 168 169 172 182 192 213 233 245
251 258 258 267 290 304 240 156 120 147 175 166 157 154 155 156 160 162 161 160 161 164 164 160 157 161 166 155 159 159 155 157 154 154 150 139 132 127 134 139 145 143 143 149 152 171 217 220 166
279 287 296 280 295 278 245 141 139 132 134 141 146 147 155 157 160 153 154 151 152 159 164 163 158 159 160 154 161 158 155 153 145 137 137 135 132 128 131 133 136 140 140 142 144 163 168 134 116
287 305 301 289 283 274 227 139 124 151 140 140 146 152 155 155 152 146 148 149 156 163 162 159 152 155 156 157 153 149 149 144 135 130 133 132 130 131 129 123 121 119 128 133 138 137 121 119 111
305 314 307 287 268 233 122 27 179 154 145 147 153 151 149 151 153 157 157 155 157 164 159 155 153 154 155 153 151 146 145 140 131 130 128 123 122 125 127 122 116 116 120 112 100 91 79 76 73
322 310 287 278 247 210 132 243 217 150 143 148 154 155 153 153 154 157 156 157 155 158 157 160 160 158 156 148 139 140 139 136 135 134 125 116 115 122 118 115 116 112 104 101 96 84 76 65 71
316 277 276 286 244 177 152 222 182 152 143 147 151 153 153 149 151 154 155 157 158 157 158 161 157 158 152 141 132 133 136 134 137 134 129 120 119 120 116 111 111 107 94 83 98 83 96 87 62
276 285 292 290 257 167 161 195 160 159 150 152 157 153 156 162 171 163 158 161 160 159 158 153 155 152 146 134 125 121 121 128 132 134 132 124 119 113 111 104 94 99 95 82 82 83 73 95 88
263 280 288 287 264 120 115 132 172 164 156 160 161 158 163 166 164 159 157 163 160 163 160 156 159 155 148 143 141 140 139 139 135 145 138 130 123 116 110 103 93 99 104 108 104 93 71 43 63
273 285 288 306 21 77 88 103 190 178 180 177 167 163 158 154 158 162 160 169 168 169 168 164 163 161 158 153 148 144 139 145 145 140 136 137 129 123 119 113 108 106 102 89 81 85 84 34 60
280 268 256 257 70 50 72 18 279 269 189 161 163 166 162 167 171 171 171 178 173 175 174 168 166 163 158 149 132 124 108 100 105 129 141 148 138 127 124 124 117 110 115 112 98 93 100 78 24
279 272 251 25 66 11 54 303 286 286 313 189 168 169 173 171 171 174 175 179 179 178 173 165 165 163 158 152 149 149 150 157 175 169 164 156 149 141 136 129 122 116 117 121 118 105 106 110 66
276 288 26 69 100 69 19 102 295 326 272 244 198 181 177 175 174 177 179 180 178 174 171 169 166 164 163 161 161 157 156 162 157 153 155 158 156 158 153 142 131 128 126 130 117 109 102 110 117
291 12 39 49 67 33 290 151 276 250 234 240 207 189 181 177 176 177 180 173 173 174 173 169 167 171 172 167 166 165 165 160 156 163 167 169 168 171 169 158 151 149 142 145 141 131 124 123 119
324 63 14 349 6 262 243 189 252 255 260 241 214 196 184 177 174 174 176 177 179 179 177 173 174 178 176 171 171 173 170 167 170 172 175 172 175 188 193 170 163 160 167 167 158 147 149 148 142
255 149 169 218 230 253 268 242 261 276 277 241 196 182 173 174 175 179 183 182 183 180 177 176 178 179 176 175 178 176 170 171 176 176 176 181 189 196 190 181 179 179 178 176 166 163 174 168 166
223 230 182 152 164 128 259 286 303 308 318 147 160 166 174 178 180 183 184 182 182 181 179 179 178 176 178 177 178 181 177 176 182 184 183 188 194 197 189 185 184 185 182 178 170 182 198 188 194
171 172 105 125 158 195 237 245 236 242 226 203 186 189 185 181 182 183 185 185 184 181 179 178 176 179 178 180 185 190 187 186 186 182 190 194 196 194 185 188 189 189 187 182 179 188 200 193 205
198 134 130 140 155 153 200 250 224 209 203 199 199 194 183 180 182 184 185 184 180 177 177 176 177 177 180 184 188 188 187 189 189 192 201 200 197 192 190 191 191 193 196 192 190 200 199 204 216
179 174 151 157 205 164 168 247 248 189 185 191 195 181 176 175 177 179 178 176 177 181 182 181 181 184 186 186 186 189 190 191 198 207 210 203 199 198 196 193 194 200 202 199 200 209 209 208 217
Height
1519 1519 1520 1520 1521 1526 1526 1514 1505 1503 1500 1499 1498 1500 1504 1508 1512 1520 1516 1518 1522 1525 1529 1533 1536 1537 1539 1540 1542 1543 1544 1544 1545 1546 1547 1548 1549 1550 1551 1552 1553 1554 1554 1555 1555 1556 1556 1557 1557
1519 1519 1520 1520 1525 1534 1524 1507 1503 1499 1498 1499 1500 1502 1505 1508 1509 1511 1514 1518 1522 1525 1529 1533 1536 1538 1539 1541 1542 1543 1544 1545 1546 1547 1548 1549 1550 1551 1552 1553 1554 1555 1555 1556 1556 1557 1558 1558 1559
1519 1519 1521 1521 1526 1528 1517 1502 1498 1496 1497 1497 1501 1504 1506 1510 1511 1512 1514 1518 1522 1526 1530 1534 1536 1538 1540 1541 1543 1544 1545 1546 1547 1548 1549 1550 1551 1552 1553 1554 1555 1556 1556 1557 1558 1558 1559 1560 1561
1519 1519 1520 1524 1524 1511 1502 1497 1494 1495 1497 1497 1499 1505 1509 1512 1512 1513 1516 1519 1523 1526 1530 1534 1536 1539 1540 1542 1543 1544 1545 1546 1548 1549 1550 1551 1551 1552 1554 1555 1556 1557 1557 1558 1559 1560 1561 1561 1562
1518 1518 1522 1526 1515 1500 1492 1491 1491 1493 1495 1497 1498 1505 1510 1512 1512 1514 1517 1520 1523 1527 1531 1534 1537 1539 1541 1543 1544 1545 1546 1547 1548 1549 1551 1551 1552 1553 1554 1555 1556 1557 1558 1559 1560 1561 1562 1563 1564
1517 1517 1527 1527 1510 1495 1490 1489 1490 1493 1496 1497 1499 1504 1511 1512 1512 1515 1518 1521 1524 1528 1531 1534 1537 1539 1541 1543 1544 1545 1547 1548 1549 1550 1551 1552 1553 1554 1555 1556 1557 1558 1559 1560 1561 1562 1563 1564 1565
1517 1518 1522 1516 1507 1497 1490 1489 1489 1492 1494 1497 1498 1504 1511 1513 1513 1515 1519 1522 1525 1528 1531 1533 1536 1539 1541 1543 1545 1546 1547 1548 1549 1550 1552 1553 1554 1555 1556 1557 1558 1559 1560 1561 1562 1563 1564 1565 1566
1514 1516 1517 1513 1505 1498 1490 1488 1489 1490 1493 1496 1497 1501 1507 1511 1512 1515 1518 1521 1524 1527 1530 1533 1535 1538 1541 1543 1545 1546 1547 1549 1550 1551 1552 1553 1554 1555 1556 1557 1558 1559 1560 1561 1562 1563 1564 1565 1566
1513 1519 1520 1510 1501 1495 1488 1488 1490 1490 1492 1495 1496 1498 1500 1507 1510 1514 1517 1519 1523 1526 1530 1532 1535 1538 1540 1543 1545 1547 1548 1549 1550 1551 1552 1553 1554 1555 1556 1557 1558 1559 1560 1561 1562 1563 1564 1565 1566
1508 1518 1509 1496 1492 1489 1487 1487 1488 1491 1493 1495 1496 1498 1501 1505 1508 1510 1513 1516 1519 1524 1528 1531 1534 1537 1540 1542 1544 1546 1548 1549 1550 1551 1552 1553 1554 1555 1556 1557 1558 1559 1560 1561 1562 1563 1564 1565 1566
1503 1505 1495 1490 1487 1486 1485 1486 1486 1489 1493 1493 1493 1496 1500 1503 1507 1509 1511 1513 1517 1522 1526 1530 1533 1536 1539 1542 1544 1546 1548 1549 1550 1551 1552 1553 1553 1554 1555 1557 1558 1559 1560 1561 1562 1563 1564 1565 1566
1499 1494 1490 1488 1486 1484 1484 1484 1486 1486 1487 1488 1490 1492 1496 1501 1504 1507 1509 1513 1517 1520 1524 1528 1532 1535 1538 1541 1543 1545 1547 1549 1550 1551 1552 1552 1553 1554 1555 1556 1557 1558 1560 1561 1562 1563 1564 1565 1566
1495 1491 1489 1486 1484 1483 1482 1483 1484 1486 1487 1489 1492 1494 1496 1499 1503 1506 1509 1513 1517 1519 1523 1526 1530 1534 1537 1541 1543 1545 1547 1548 1549 1550 1551 1552 1553 1553 1554 1555 1556 1557 1559 1560 1561 1562 1563 1565 1566
1494 1491 1487 1483 1481 1481 1482 1483 1485 1487 1488 1490 1492 1494 1497 1500 1502 1506 1508 1511 1515 1518 1521 1524 1528 1532 1536 1540 1542 1544 1546 1548 1549 1550 1551 1552 1552 1553 1553 1554 1555 1557 1558 1559 1560 1562 1563 1564 1565
1493 1492 1487 1481 1479 1479 1481 1486 1485 1485 1489 1491 1493 1495 1497 1500 1502 1504 1506 1509 1512 1516 1519 1524 1528 1532 1536 1539 1541 1543 1545 1547 1548 1549 1550 1551 1551 1552 1553 1554 1555 1556 1557 1558 1560 1561 1562 1563 1565
1494 1496 1498 1482 1477 1478 1484 1493 1484 1486 1489 1492 1493 1495 1496 1499 1501 1503 1506 1509 1512 1514 1517 1523 1527 1530 1535 1537 1539 1541 1544 1546 1547 1548 1549 1550 1550 1551 1552 1553 1554 1555 1556 1557 1559 1560 1562 1563 1564
1502 1507 1499 1485 1475 1476 1482 1490 1484 1486 1488 1491 1492 1494 1495 1498 1500 1503 1505 1508 1511 1513 1517 1521 1524 1528 1533 1536 1538 1540 1543 1545 1546 1548 1548 1549 1550 1551 1552 1552 1553 1554 1555 1557 1558 1560 1561 1563 1564
1510 1504 1495 1489 1477 1477 1484 1487 1485 1486 1487 1489 1492 1494 1495 1497 1498 1501 1504 1507 1510 1513 1516 1519 1523 1526 1531 1534 1536 1539 1542 1544 1546 1547 1548 1548 1549 1550 1551 1552 1553 1554 1555 1556 1558 1559 1561 1562 1564
1497 1496 1494 1484 1475 1479 1486 1487 1486 1485 1487 1489 1491 1493 1496 1497 1499 1501 1503 1506 1508 1511 1515 1518 1521 1525 1529 1531 1534 1536 1540 1542 1545 1546 1547 1548 1549 1550 1551 1552 1553 1554 1555 1556 1558 1559 1560 1562 1563
1490 1493 1491 1483 1476 1482 1488 1489 1486 1484 1486 1487 1489 1492 1494 1498 1499 1501 1502 1505 1506 1510 1513 1517 1520 1524 1527 1530 1533 1536 1539 1542 1544 1545 1546 1547 1548 1549 1550 1551 1552 1553 1554 1556 1557 1558 1560 1561 1562
1486 1488 1486 1485 1483 1486 1489 1496 1490 1486 1485 1488 1490 1491 1493 1495 1497 1500 1502 1504 1506 1509 1512 1515 1518 1522 1525 1529 1532 1535 1538 1541 1543 1544 1546 1547 1548 1549 1550 1551 1552 1553 1554 1555 1556 1558 1559 1560 1562
1490 1476 1476 1479 1491 1504 1498 1512 1497 1489 1486 1487 1489 1491 1492 1494 1496 1498 1500 1502 1505 1507 1511 1514 1517 1521 1524 1528 1531 1533 1536 1538 1541 1543 1545 1546 1548 1549 1550 1551 1551 1552 1553 1554 1556 1557 1559 1560 1561
1479 1472 1475 1482 1494 1506 1505 1511 1504 1491 1491 1488 1488 1489 1491 1492 1494 1497 1499 1500 1503 1506 1509 1512 1516 1519 1523 1527 1530 1533 1536 1538 1541 1543 1545 1546 1547 1548 1549 1550 1551 1552 1553 1554 1555 1557 1558 1559 1560
1471 1476 1484 1493 1504 1518 1511 1512 1509 1495 1488 1485 1485 1486 1488 1490 1493 1496 1498 1500 1503 1506 1508 1511 1514 1518 1522 1525 1529 1532 1535 1537 1540 1542 1544 1545 1547 1548 1549 1550 1551 1551 1552 1553 1554 1556 1557 1558 1559
1472 1491 1511 1515 1524 1523 1509 1510 1505 1485 1480 1480 1481 1483 1485 1488 1491 1494 1497 1499 1502 1504 1506 1509 1512 1516 1519 1523 1527 1530 1533 1536 1538 1541 1542 1544 1546 1547 1548 1549 1550 1551 1552 1553 1554 1555 1556 1557 1558
1474 1486 1512 1523 1525 1520 1510 1511 1496 1479 1477 1477 1478 1480 1483 1486 1489 1492 1495 1497 1500 1502 1504 1507 1511 1514 1518 1521 1525 1529 1532 1535 1538 1540 1541 1543 1545 1546 1548 1549 1550 1550 1551 1552 1553 1554 1555 1556 1557
1473 1480 1483 1502 1508 1520 1516 1505 1491 1479 1478 1478 1479 1481 1483 1485 1488 1490 1493 1496 1498 1500 1503 1506 1510 1513 1517 1520 1523 1527 1531 1533 1536 1539 1541 1542 1544 1545 1546 1548 1549 1550 1550 1551 1552 1552 1553 1554 1555
1461 1470 1486 1500 1514 1522 1516 1509 1503 1486 1481 1479 1480 1480 1481 1484 1486 1489 1492 1494 1497 1499 1502 1505 1509 1512 1515 1519 1522 1525 1528 1532 1535 1537 1539 1541 1542 1544 1545 1546 1547 1548 1549 1550 1550 1551 1552 1552 1553
1465 1472 1482 1495 1500 1516 1523 1510 1480 1479 1476 1477 1477 1478 1479 1482 1484 1487 1490 1493 1495 1498 1501 1504 1507 1510 1514 1517 1520 1524 1527 1530 1533 1535 1537 1539 1541 1542 1543 1544 1545 1546 1547 1547 1548 1549 1550 1550 1551
1456 1465 1477 1494 1498 1500 1508 1502 1470 1471 1472 1474 1475 1476 1478 1480 1482 1485 1488 1491 1494 1497 1500 1503 1506 1509 1512 1516 1519 1522 1525 1528 1531 1533 1535 1537 1539 1540 1541 1542 1543 1544 1544 1545 1545 1546 1547 1547 1548